sat.trackr.live / text

‹ back to catalog

JAY-D1

NORAD 62669 · 2025-009BN

PAYLOAD ACTIVE UNKNOWN

§ Identity

Operator
Country
CA
Launch date
2025-01-14
Launch site
AFWTR
Launch vehicle
Mass (kg)
RCS (m²)

External: N2YO · Heavens-Above · Gunter

§ Orbital elements

Epoch: 2026-09-22T20:09:22.604544Z

Period
94.56 min
Inclination
97.3969°
Eccentricity
0.0005303
Mean motion
15.22900451 rev/d
Perigee alt
493.5 km
Apogee alt
500.7 km
Semi-major
6,875.2 km
B*
1.0833e-4
RAAN
343.7339°
Arg perigee
17.0332°
Mean anomaly
343.1082°
Rev number
15,123

§ Raw data

JAY-D11 62669U 25009BN  26265.83984496  .00002470  00000+0  10833-3 0  99972 62669  97.3969 343.7339 0005303  17.0332 343.1082 15.22900451151235

JSON: /api/v1/satellites/62669 · /tle

For live sub-satellite position, see the globe view (requires WebGL).

§ Visibility from observer

Set your observer location to see the next 7 days of passes ≥ 10°. The values pass through the URL so the page stays shareable.

No JS? Fill the form by hand. The geolocation button needs JavaScript.